Time,TemperatureF,DewpointF,PressureIn,WindDirection,WindDirectionDegrees,WindSpeedMPH,WindSpeedGustMPH,Humidity,HourlyPrecipIn,Conditions,Clouds,dailyrainin,SolarRadiationWatts/m^2,SoftwareType,DateUTC
2013-04-10 00:00:00,71.4,66.3,29.69,SE,141,1.0,7.0,84,0.00,,SCT350,0.00,179.00,VWS V14.01,2013-04-10 05:00:00,
2013-04-10 00:07:00,71.3,66.6,29.69,ESE,123,7.0,11.0,85,0.00,,SCT350,0.00,179.00,VWS V14.01,2013-04-10 05:07:00,
2013-04-10 00:10:00,72.6,66.8,29.68,South,172,2.0,16.0,82,0.00,,CLR,0.00,179.00,VWS V15.00,2013-04-10 05:10:00,
2013-04-10 00:12:00,71.3,66.6,29.69,SSE,155,4.0,6.0,85,0.00,,SCT350,0.00,179.00,VWS V14.01,2013-04-10 05:12:00,
2013-04-10 00:17:00,71.1,66.4,29.69,SSE,162,5.0,6.0,85,0.00,,SCT350,0.00,179.00,VWS V14.01,2013-04-10 05:17:00,
2013-04-10 00:20:00,72.5,66.7,29.68,SE,136,5.0,14.0,82,0.00,,CLR,0.00,179.00,VWS V15.00,2013-04-10 05:20:00,
2013-04-10 00:22:00,71.0,66.3,29.69,SE,140,6.0,6.0,85,0.00,,SCT350,0.00,179.00,VWS V14.01,2013-04-10 05:22:00,
2013-04-10 00:27:00,71.1,66.7,29.69,South,185,2.0,9.0,86,0.00,,SCT350,0.00,179.00,VWS V14.01,2013-04-10 05:27:00,
2013-04-10 00:30:00,72.3,66.8,29.68,SSE,155,8.0,12.0,83,0.00,,OVC019,0.00,179.00,VWS V15.00,2013-04-10 05:30:00,
2013-04-10 00:32:00,71.1,66.4,29.69,SSE,148,4.0,7.0,85,0.00,,SCT350,0.00,179.00,VWS V14.01,2013-04-10 05:32:00,
2013-04-10 00:37:00,71.2,66.8,29.69,SE,137,1.0,11.0,86,0.00,,BKN300,0.00,179.00,VWS V14.01,2013-04-10 05:37:00,
2013-04-10 00:40:00,72.1,66.7,29.68,SE,144,3.0,12.0,83,0.00,,CLR,0.00,179.00,VWS V15.00,2013-04-10 05:40:00,
2013-04-10 00:42:00,71.4,66.7,29.69,SSE,167,2.0,10.0,85,0.00,,BKN300,0.00,179.00,VWS V14.01,2013-04-10 05:42:00,
2013-04-10 00:47:00,71.3,66.6,29.69,SE,146,4.0,10.0,85,0.00,,BKN300,0.00,179.00,VWS V14.01,2013-04-10 05:47:00,
2013-04-10 00:50:00,71.7,66.6,29.69,SE,126,5.0,11.0,84,0.00,,OVC019,0.00,179.00,VWS V15.00,2013-04-10 05:50:00,
2013-04-10 00:52:00,71.3,66.9,29.69,SE,129,2.0,3.0,86,0.00,,OVC032,0.00,179.00,VWS V14.01,2013-04-10 05:52:00,
2013-04-10 00:57:00,71.2,66.5,29.69,SSE,164,4.0,5.0,85,0.00,,OVC032,0.00,179.00,VWS V14.01,2013-04-10 05:57:00,
2013-04-10 01:00:00,71.4,66.3,29.69,SE,141,1.0,7.0,84,0.00,,CLR,0.00,179.00,VWS V15.00,2013-04-10 06:00:00,
2013-04-10 01:02:00,71.2,66.8,29.68,ESE,114,1.0,5.0,86,0.00,,OVC032,0.00,179.00,VWS V14.01,2013-04-10 06:02:00,
2013-04-10 01:07:00,71.1,66.7,29.68,SE,142,2.0,6.0,86,0.00,,OVC032,0.00,179.00,VWS V14.01,2013-04-10 06:07:00,
2013-04-10 01:10:00,71.3,66.6,29.69,SE,133,6.0,11.0,85,0.00,,CLR,0.00,179.00,VWS V15.00,2013-04-10 06:10:00,
2013-04-10 01:12:00,71.2,66.8,29.68,SE,129,2.0,9.0,86,0.00,,OVC032,0.00,179.00,VWS V14.01,2013-04-10 06:12:00,
2013-04-10 01:17:00,71.2,66.8,29.68,NE,51,4.0,9.0,86,0.00,,OVC032,0.00,179.00,VWS V14.01,2013-04-10 06:17:00,
2013-04-10 01:20:00,71.1,66.4,29.69,ESE,116,3.0,6.0,85,0.00,,OVC019,0.00,179.00,VWS V15.00,2013-04-10 06:20:00,
2013-04-10 01:22:00,71.0,66.6,29.68,SE,146,3.0,8.0,86,0.00,,OVC032,0.00,179.00,VWS V14.01,2013-04-10 06:22:00,
2013-04-10 01:27:00,70.8,66.7,29.68,SE,131,9.0,10.0,87,0.00,,OVC032,0.00,179.00,VWS V14.01,2013-04-10 06:27:00,
2013-04-10 01:30:00,71.1,66.4,29.69,SE,130,4.0,9.0,85,0.00,,OVC019,0.00,179.00,VWS V15.00,2013-04-10 06:30:00,
2013-04-10 01:32:00,70.7,66.7,29.68,South,178,5.0,11.0,87,0.00,,OVC032,0.00,179.00,VWS V14.01,2013-04-10 06:32:00,
2013-04-10 01:37:00,70.5,66.4,29.68,SSE,155,3.0,12.0,87,0.00,,BKN035,0.00,179.00,VWS V14.01,2013-04-10 06:37:00,
2013-04-10 01:40:00,71.4,66.7,29.69,East,80,3.0,11.0,85,0.00,,CLR,0.00,179.00,VWS V15.00,2013-04-10 06:40:00,
2013-04-10 01:42:00,70.2,66.2,29.68,South,169,2.0,9.0,87,0.00,,BKN035,0.00,179.00,VWS V14.01,2013-04-10 06:42:00,
2013-04-10 01:47:00,70.0,66.0,29.68,ESE,115,3.0,9.0,87,0.00,,BKN035,0.00,179.00,VWS V14.01,2013-04-10 06:47:00,
2013-04-10 01:50:00,71.3,66.6,29.69,South,180,3.0,10.0,85,0.00,,CLR,0.00,179.00,VWS V15.00,2013-04-10 06:50:00,
2013-04-10 01:52:00,69.8,66.1,29.68,ESE,116,3.0,5.0,88,0.00,,BKN035,0.00,179.00,VWS V14.01,2013-04-10 06:52:00,
2013-04-10 01:57:00,69.9,66.5,29.68,SE,135,4.0,10.0,89,0.00,,BKN035,0.00,179.00,VWS V14.01,2013-04-10 06:57:00,
2013-04-10 02:00:00,71.2,66.8,29.68,SSE,157,1.0,5.0,86,0.00,,CLR,0.00,179.00,VWS V15.00,2013-04-10 07:00:00,
2013-04-10 02:02:00,69.9,66.5,29.68,SE,129,7.0,8.0,89,0.00,,BKN035,0.00,179.00,VWS V14.01,2013-04-10 07:02:00,
2013-04-10 02:07:00,69.7,66.3,29.68,SSE,160,2.0,8.0,89,0.00,,BKN035,0.00,179.00,VWS V14.01,2013-04-10 07:07:00,
2013-04-10 02:10:00,71.1,66.7,29.68,SSE,160,2.0,6.0,86,0.00,,CLR,0.00,179.00,VWS V15.00,2013-04-10 07:10:00,
2013-04-10 02:12:00,69.6,66.2,29.68,SE,141,5.0,9.0,89,0.00,,BKN035,0.00,179.00,VWS V14.01,2013-04-10 07:12:00,
2013-04-10 02:17:00,69.6,66.2,29.68,SSE,149,3.0,9.0,89,0.00,,BKN035,0.00,179.00,VWS V14.01,2013-04-10 07:17:00,
2013-04-10 02:20:00,71.1,66.7,29.68,ESE,123,1.0,9.0,86,0.00,,CLR,0.00,179.00,VWS V15.00,2013-04-10 07:20:00,
2013-04-10 02:22:00,69.6,66.2,29.68,East,96,2.0,4.0,89,0.00,,BKN035,0.00,179.00,VWS V14.01,2013-04-10 07:22:00,
2013-04-10 02:27:00,69.7,66.3,29.68,ESE,121,5.0,9.0,89,0.00,,BKN035,0.00,179.00,VWS V14.01,2013-04-10 07:27:00,
2013-04-10 02:30:00,70.7,66.7,29.68,ESE,116,5.0,10.0,87,0.00,,CLR,0.00,179.00,VWS V15.00,2013-04-10 07:30:00,
2013-04-10 02:32:00,69.7,66.3,29.67,SE,142,4.0,7.0,89,0.00,,BKN035,0.00,179.00,VWS V14.01,2013-04-10 07:32:00,
2013-04-10 02:37:00,69.8,66.4,29.67,SSE,148,3.0,12.0,89,0.00,,OVC031,0.00,179.00,VWS V14.01,2013-04-10 07:37:00,
2013-04-10 02:40:00,70.3,66.2,29.68,SE,146,4.0,12.0,87,0.00,,CLR,0.00,179.00,VWS V15.00,2013-04-10 07:40:00,
2013-04-10 02:42:00,70.0,66.9,29.67,ESE,119,5.0,7.0,90,0.00,,OVC031,0.00,179.00,VWS V14.01,2013-04-10 07:42:00,
2013-04-10 02:47:00,70.0,66.6,29.67,SE,144,4.0,10.0,89,0.00,,OVC031,0.00,179.00,VWS V14.01,2013-04-10 07:47:00,
2013-04-10 02:50:00,69.8,66.1,29.68,South,172,2.0,9.0,88,0.00,,CLR,0.00,179.00,VWS V15.00,2013-04-10 07:50:00,
2013-04-10 02:52:00,69.9,66.8,29.67,SSE,155,3.0,8.0,90,0.00,,OVC031,0.00,179.00,VWS V14.01,2013-04-10 07:52:00,
2013-04-10 02:57:00,69.8,66.7,29.67,SSE,160,2.0,8.0,90,0.00,,OVC031,0.00,179.00,VWS V14.01,2013-04-10 07:57:00,
2013-04-10 03:00:00,69.8,66.4,29.68,SE,128,4.0,10.0,89,0.00,,CLR,0.00,179.00,VWS V15.00,2013-04-10 08:00:00,
2013-04-10 03:02:00,69.6,66.5,29.67,South,187,4.0,7.0,90,0.00,,OVC031,0.00,179.00,VWS V14.01,2013-04-10 08:02:00,
2013-04-10 03:07:00,69.4,66.3,29.67,SSW,192,4.0,7.0,90,0.00,,OVC031,0.00,179.00,VWS V14.01,2013-04-10 08:07:00,
2013-04-10 03:10:00,69.7,66.3,29.68,SE,137,4.0,9.0,89,0.00,,CLR,0.00,179.00,VWS V15.00,2013-04-10 08:10:00,
2013-04-10 03:12:00,69.4,66.7,29.67,South,179,4.0,5.0,91,0.00,,OVC031,0.00,179.00,VWS V14.01,2013-04-10 08:12:00,
2013-04-10 03:17:00,69.4,66.7,29.66,South,180,4.0,5.0,91,0.00,,OVC031,0.00,179.00,VWS V14.01,2013-04-10 08:17:00,
2013-04-10 03:20:00,69.6,66.2,29.68,SSW,194,2.0,9.0,89,0.00,,CLR,0.00,179.00,VWS V15.00,2013-04-10 08:20:00,
2013-04-10 03:22:00,69.2,66.5,29.66,SSE,155,5.0,5.0,91,0.00,,OVC031,0.00,179.00,VWS V14.01,2013-04-10 08:22:00,
2013-04-10 03:27:00,69.3,66.9,29.66,South,172,2.0,6.0,92,0.00,,OVC031,0.00,179.00,VWS V14.01,2013-04-10 08:27:00,
2013-04-10 03:30:00,69.7,66.6,29.67,SSE,157,2.0,9.0,90,0.00,,CLR,0.00,179.00,VWS V15.00,2013-04-10 08:30:00,
2013-04-10 03:32:00,69.6,67.2,29.67,SSE,157,3.0,4.0,92,0.00,,OVC031,0.00,179.00,VWS V14.01,2013-04-10 08:32:00,
2013-04-10 03:37:00,69.8,67.4,29.67,South,183,2.0,4.0,92,0.00,,OVC016,0.00,179.00,VWS V14.01,2013-04-10 08:37:00,
2013-04-10 03:40:00,69.9,66.8,29.67,SE,140,3.0,12.0,90,0.00,,CLR,0.00,179.00,VWS V15.00,2013-04-10 08:40:00,
2013-04-10 03:42:00,69.8,67.4,29.67,SSW,210,2.0,3.0,92,0.00,,OVC016,0.00,179.00,VWS V14.01,2013-04-10 08:42:00,
2013-04-10 03:47:00,69.9,67.2,29.66,SSW,192,2.0,4.0,91,0.00,,OVC016,0.00,179.00,VWS V14.01,2013-04-10 08:47:00,
2013-04-10 03:50:00,69.9,66.5,29.67,SSE,161,3.0,10.0,89,0.00,,CLR,0.00,179.00,VWS V15.00,2013-04-10 08:50:00,
2013-04-10 03:52:00,69.9,67.5,29.66,West,277,12.0,13.0,92,0.00,,OVC016,0.00,179.00,VWS V14.01,2013-04-10 08:52:00,
2013-04-10 03:57:00,65.5,57.0,29.66,West,268,5.0,14.0,74,0.00,,OVC016,0.00,179.00,VWS V14.01,2013-04-10 08:57:00,
2013-04-10 04:00:00,69.7,66.6,29.67,SSE,163,7.0,8.0,90,0.00,,CLR,0.00,179.00,VWS V15.00,2013-04-10 09:00:00,
2013-04-10 04:02:00,61.6,54.0,29.68,West,273,10.0,17.0,76,0.00,,OVC016,0.00,179.00,VWS V14.01,2013-04-10 09:02:00,
2013-04-10 04:07:00,59.1,52.9,29.68,WSW,249,2.0,17.0,80,0.00,,OVC016,0.00,179.00,VWS V14.01,2013-04-10 09:07:00,
2013-04-10 04:10:00,69.4,66.7,29.67,South,182,4.0,7.0,91,0.00,,CLR,0.00,179.00,VWS V15.00,2013-04-10 09:10:00,
2013-04-10 04:12:00,57.2,51.4,29.68,WNW,296,5.0,10.0,81,0.00,,OVC016,0.00,179.00,VWS V14.01,2013-04-10 09:12:00,
2013-04-10 04:17:00,55.8,50.7,29.68,NW,314,7.0,12.0,83,0.00,,OVC016,0.00,179.00,VWS V14.01,2013-04-10 09:17:00,
2013-04-10 04:20:00,69.3,66.6,29.66,South,188,2.0,5.0,91,0.00,,CLR,0.00,179.00,VWS V15.00,2013-04-10 09:20:00,
2013-04-10 04:22:00,54.2,49.8,29.68,WSW,249,7.0,13.0,85,0.00,,OVC016,0.00,179.00,VWS V14.01,2013-04-10 09:22:00,
2013-04-10 04:27:00,53.4,49.9,29.68,WNW,286,3.0,14.0,88,0.00,,OVC016,0.00,179.00,VWS V14.01,2013-04-10 09:27:00,
2013-04-10 04:30:00,69.5,67.1,29.67,South,176,4.0,6.0,92,0.00,,CLR,0.00,179.00,VWS V15.00,2013-04-10 09:30:00,
2013-04-10 04:32:00,52.8,49.3,29.71,West,273,10.0,10.0,88,0.00,,OVC016,0.00,179.00,VWS V14.01,2013-04-10 09:32:00,
2013-04-10 04:37:00,52.3,49.2,29.71,NW,304,6.0,12.0,89,0.00,,OVC016,0.00,179.00,VWS V14.01,2013-04-10 09:37:00,
2013-04-10 04:40:00,69.8,67.4,29.67,SSW,194,1.0,4.0,92,0.00,,CLR,0.00,179.00,VWS V15.00,2013-04-10 09:40:00,
2013-04-10 04:42:00,51.9,48.8,29.71,NW,306,6.0,14.0,89,0.00,,OVC016,0.00,179.00,VWS V14.01,2013-04-10 09:42:00,
2013-04-10 04:47:00,51.4,48.6,29.72,NW,318,4.0,14.0,90,0.00,,OVC016,0.00,179.00,VWS V14.01,2013-04-10 09:47:00,
2013-04-10 04:50:00,69.9,67.2,29.66,SSW,213,2.0,4.0,91,0.00,,CLR,0.00,179.00,VWS V15.00,2013-04-10 09:50:00,
2013-04-10 04:52:00,50.6,47.2,29.72,WNW,292,5.0,10.0,88,0.00,,-RA,0.00,179.00,VWS V14.01,2013-04-10 09:52:00,
2013-04-10 04:57:00,50.0,46.9,29.72,NW,306,11.0,13.0,89,0.00,,-RA,0.00,179.00,VWS V14.01,2013-04-10 09:57:00,
2013-04-10 05:00:00,63.2,54.8,29.68,NW,314,14.0,16.0,74,0.00,,CLR,0.00,179.00,VWS V15.00,2013-04-10 10:00:00,
2013-04-10 05:02:00,49.5,46.7,29.72,NNW,333,4.0,8.0,90,0.00,,-RA,0.00,179.00,VWS V14.01,2013-04-10 10:02:00,
2013-04-10 05:07:00,49.2,46.4,29.72,NNE,27,11.0,11.0,90,0.00,,-RA,0.00,179.00,VWS V14.01,2013-04-10 10:07:00,
2013-04-10 05:10:00,58.0,52.2,29.68,NW,319,9.0,17.0,81,0.00,,CLR,0.00,179.00,VWS V15.00,2013-04-10 10:10:00,
2013-04-10 05:13:00,48.9,46.1,29.72,WNW,292,5.0,10.0,90,0.00,,-RA,0.00,179.00,VWS V14.01,2013-04-10 10:13:00,
2013-04-10 05:18:00,48.7,45.9,29.74,NNE,15,9.0,14.0,90,0.00,,-RA,0.00,179.00,VWS V14.01,2013-04-10 10:18:00,
2013-04-10 05:20:00,54.9,50.2,29.68,West,273,10.0,16.0,84,0.00,,CLR,0.00,179.00,VWS V15.00,2013-04-10 10:20:00,
2013-04-10 05:23:00,48.4,45.3,29.74,WNW,296,5.0,17.0,89,0.00,,OVC031,0.00,179.00,VWS V14.01,2013-04-10 10:23:00,
2013-04-10 05:28:00,48.2,45.1,29.74,NW,310,6.0,17.0,89,0.00,,OVC031,0.00,179.00,VWS V14.01,2013-04-10 10:28:00,
2013-04-10 05:30:00,53.1,49.7,29.71,NNW,333,6.0,14.0,88,0.00,,CLR,0.00,179.00,VWS V15.00,2013-04-10 10:30:00,
2013-04-10 05:33:00,48.1,45.3,29.76,WNW,301,10.0,15.0,90,0.00,,OVC031,0.00,179.00,VWS V14.01,2013-04-10 10:33:00,
2013-04-10 05:38:00,47.9,44.8,29.76,West,279,5.0,18.0,89,0.00,,OVC011,0.00,179.00,VWS V14.01,2013-04-10 10:38:00,
2013-04-10 05:40:00,52.1,49.3,29.71,WSW,237,4.0,12.0,90,0.00,,CLR,0.00,179.00,VWS V15.00,2013-04-10 10:40:00,
2013-04-10 05:43:00,47.7,44.6,29.76,WNW,284,14.0,17.0,89,0.00,,OVC011,0.00,179.00,VWS V14.01,2013-04-10 10:43:00,
2013-04-10 05:48:00,47.4,44.3,29.77,NNW,331,12.0,19.0,89,0.00,,OVC011,0.00,179.00,VWS V14.01,2013-04-10 10:48:00,
2013-04-10 05:50:00,50.9,47.8,29.72,NNW,333,4.0,14.0,89,0.00,,CLR,0.00,179.00,VWS V15.00,2013-04-10 10:50:00,
2013-04-10 05:53:00,47.2,44.1,29.77,West,281,10.0,17.0,89,0.00,,OVC011,0.00,179.00,VWS V14.01,2013-04-10 10:53:00,
2013-04-10 05:58:00,47.1,44.0,29.77,West,263,8.0,22.0,89,0.00,,OVC011,0.00,179.00,VWS V14.01,2013-04-10 10:58:00,
2013-04-10 06:00:00,49.7,46.6,29.72,NW,313,7.0,13.0,89,0.00,,CLR,0.00,179.00,VWS V15.00,2013-04-10 11:00:00,
2013-04-10 06:03:00,47.1,44.0,29.80,NW,314,4.0,16.0,89,0.00,,OVC011,0.00,179.00,VWS V14.01,2013-04-10 11:03:00,
2013-04-10 06:08:00,47.0,43.9,29.80,WNW,300,5.0,18.0,89,0.00,,OVC011,0.00,179.00,VWS V14.01,2013-04-10 11:08:00,
2013-04-10 06:10:00,49.0,46.2,29.72,WNW,299,9.0,13.0,90,0.00,,CLR,0.00,179.00,VWS V15.00,2013-04-10 11:10:00,
2013-04-10 06:13:00,46.9,43.8,29.80,NNW,327,9.0,16.0,89,0.00,,OVC011,0.00,179.00,VWS V14.01,2013-04-10 11:13:00,
2013-04-10 06:18:00,46.8,43.7,29.81,NW,317,2.0,16.0,89,0.00,,OVC011,0.00,179.00,VWS V14.01,2013-04-10 11:18:00,
2013-04-10 06:20:00,48.5,45.4,29.74,West,279,17.0,17.0,89,0.00,,CLR,0.00,179.00,VWS V15.00,2013-04-10 11:20:00,
2013-04-10 06:23:00,46.8,43.7,29.81,West,276,5.0,16.0,89,0.00,,OVC011,0.00,179.00,VWS V14.01,2013-04-10 11:23:00,
2013-04-10 06:28:00,46.5,43.4,29.81,NNW,347,12.0,19.0,89,0.00,,OVC011,0.00,179.00,VWS V14.01,2013-04-10 11:28:00,
2013-04-10 06:30:00,48.2,45.4,29.76,WNW,296,2.0,17.0,90,0.00,,CLR,0.00,179.00,VWS V15.00,2013-04-10 11:30:00,
2013-04-10 06:33:00,46.4,43.3,29.81,NW,314,9.0,14.0,89,0.00,,OVC011,0.00,179.00,VWS V14.01,2013-04-10 11:33:00,
2013-04-10 06:38:00,46.3,43.5,29.81,NE,36,8.0,16.0,90,0.00,,OVC011,0.00,179.00,VWS V14.01,2013-04-10 11:38:00,
2013-04-10 06:40:00,47.7,44.6,29.76,WNW,303,11.0,18.0,89,0.00,,CLR,0.00,179.00,VWS V15.00,2013-04-10 11:40:00,
2013-04-10 06:43:00,46.0,43.2,29.81,NNW,344,4.0,15.0,90,0.00,,OVC011,0.00,179.00,VWS V14.01,2013-04-10 11:43:00,
2013-04-10 06:48:00,45.8,42.8,29.81,NW,305,6.0,15.0,89,0.00,,OVC011,0.00,179.00,VWS V14.01,2013-04-10 11:48:00,
2013-04-10 06:50:00,47.3,43.9,29.77,WNW,287,4.0,19.0,88,0.00,,CLR,0.00,179.00,VWS V15.00,2013-04-10 11:50:00,
2013-04-10 06:53:00,45.6,42.5,29.81,NW,317,7.0,13.0,89,0.00,,OVC011,0.00,179.00,VWS V14.01,2013-04-10 11:53:00,
2013-04-10 06:58:00,45.4,42.6,29.81,NW,326,13.0,16.0,90,0.00,,OVC011,0.00,179.00,VWS V14.01,2013-04-10 11:58:00,
2013-04-10 07:00:00,47.0,43.6,29.80,NW,318,11.0,22.0,88,0.00,,CLR,0.00,179.00,VWS V15.00,2013-04-10 12:00:00,
2013-04-10 07:03:00,45.3,42.5,29.82,North,350,10.0,13.0,90,0.00,,OVC011,0.00,179.00,VWS V14.01,2013-04-10 12:03:00,
2013-04-10 07:08:00,45.2,42.2,29.82,West,279,5.0,16.0,89,0.00,,OVC011,0.00,179.00,VWS V14.01,2013-04-10 12:08:00,
2013-04-10 07:10:00,46.9,43.5,29.80,WNW,292,12.0,18.0,88,0.00,,CLR,0.00,179.00,VWS V15.00,2013-04-10 12:10:00,
2013-04-10 07:13:00,45.2,42.2,29.82,West,260,6.0,13.0,89,0.00,,OVC011,0.00,179.00,VWS V14.01,2013-04-10 12:13:00,
2013-04-10 07:18:00,45.0,41.7,29.83,NNW,332,6.0,17.0,88,0.00,,OVC011,0.00,179.00,VWS V14.01,2013-04-10 12:18:00,
2013-04-10 07:20:00,46.8,43.7,29.81,NW,314,10.0,16.0,89,0.00,,CLR,0.00,179.00,VWS V15.00,2013-04-10 12:20:00,
2013-04-10 07:23:00,44.9,41.9,29.83,WNW,292,8.0,13.0,89,0.00,,OVC011,0.00,179.00,VWS V14.01,2013-04-10 12:23:00,
2013-04-10 07:28:00,44.8,41.8,29.83,NE,39,6.0,13.0,89,0.00,,OVC011,0.00,179.00,VWS V14.01,2013-04-10 12:28:00,
2013-04-10 07:30:00,46.5,43.4,29.81,NE,40,7.0,19.0,89,0.00,,CLR,0.00,179.00,VWS V15.00,2013-04-10 12:30:00,
2013-04-10 07:33:00,44.7,42.0,29.83,WNW,283,5.0,13.0,90,0.00,,OVC011,0.00,179.00,VWS V14.01,2013-04-10 12:33:00,
2013-04-10 07:38:00,44.5,42.0,29.83,NNE,22,9.0,14.0,91,0.01,,OVC020,0.01,179.00,VWS V14.01,2013-04-10 12:38:00,
2013-04-10 07:40:00,46.1,43.0,29.81,WNW,296,7.0,16.0,89,0.00,,CLR,0.00,179.00,VWS V15.00,2013-04-10 12:40:00,
2013-04-10 07:43:00,44.4,41.9,29.83,NW,306,6.0,16.0,91,0.01,,OVC020,0.01,179.00,VWS V14.01,2013-04-10 12:43:00,
2013-04-10 07:48:00,44.3,42.1,29.83,NW,310,7.0,16.0,92,0.01,,OVC020,0.01,179.00,VWS V14.01,2013-04-10 12:48:00,
2013-04-10 07:50:00,45.6,42.5,29.81,NW,319,10.0,15.0,89,0.00,,CLR,0.00,179.00,VWS V15.00,2013-04-10 12:50:00,
2013-04-10 07:53:00,44.2,42.0,29.83,West,276,3.0,10.0,92,0.01,,OVC020,0.01,179.00,VWS V14.01,2013-04-10 12:53:00,
2013-04-10 07:58:00,44.2,42.0,29.83,WNW,290,8.0,11.0,92,0.01,,OVC020,0.01,179.00,VWS V14.01,2013-04-10 12:58:00,
2013-04-10 08:00:00,45.3,42.5,29.82,WNW,292,9.0,16.0,90,0.00,,CLR,0.00,179.00,VWS V15.00,2013-04-10 13:00:00,
2013-04-10 08:03:00,44.1,41.9,29.83,NNE,16,2.0,12.0,92,0.01,,OVC020,0.01,179.00,VWS V14.01,2013-04-10 13:03:00,
2013-04-10 08:08:00,44.2,42.0,29.83,NNW,346,9.0,13.0,92,0.01,,OVC020,0.01,179.00,VWS V14.01,2013-04-10 13:08:00,
2013-04-10 08:10:00,45.2,42.2,29.82,NW,305,11.0,16.0,89,0.00,,CLR,0.00,179.00,VWS V15.00,2013-04-10 13:10:00,
2013-04-10 08:13:00,44.1,41.9,29.83,WNW,302,3.0,7.0,92,0.01,,OVC020,0.01,179.00,VWS V14.01,2013-04-10 13:13:00,
2013-04-10 08:18:00,44.2,42.0,29.83,West,275,9.0,11.0,92,0.01,,OVC020,0.01,179.00,VWS V14.01,2013-04-10 13:18:00,
2013-04-10 08:20:00,44.9,41.9,29.83,NNW,337,8.0,17.0,89,0.00,,CLR,0.00,179.00,VWS V15.00,2013-04-10 13:20:00,
2013-04-10 08:23:00,44.3,42.1,29.83,WNW,284,5.0,9.0,92,0.02,,OVC020,0.02,179.00,VWS V14.01,2013-04-10 13:23:00,
2013-04-10 08:28:00,44.1,41.9,29.83,NW,315,7.0,17.0,92,0.02,,OVC020,0.02,179.00,VWS V14.01,2013-04-10 13:28:00,
2013-04-10 08:30:00,44.8,41.8,29.83,NNW,347,8.0,14.0,89,0.00,,CLR,0.00,179.00,VWS V15.00,2013-04-10 13:30:00,
2013-04-10 08:33:00,44.0,41.8,29.84,WNW,284,7.0,9.0,92,0.02,,OVC020,0.02,179.00,VWS V14.01,2013-04-10 13:33:00,
2013-04-10 08:38:00,43.9,41.7,29.84,WNW,298,6.0,12.0,92,0.02,,OVC010,0.02,179.00,VWS V14.01,2013-04-10 13:38:00,
2013-04-10 08:40:00,44.4,41.9,29.83,West,272,7.0,14.0,91,0.01,,CLR,0.01,179.00,VWS V15.00,2013-04-10 13:40:00,
2013-04-10 08:43:00,43.9,41.7,29.84,West,260,11.0,14.0,92,0.01,,OVC010,0.02,179.00,VWS V14.01,2013-04-10 13:43:00,
2013-04-10 08:48:00,43.7,41.2,29.86,NW,313,5.0,17.0,91,0.01,,OVC010,0.02,179.00,VWS V14.01,2013-04-10 13:48:00,
2013-04-10 08:50:00,44.2,42.0,29.83,NE,42,6.0,16.0,92,0.01,,CLR,0.01,179.00,VWS V15.00,2013-04-10 13:50:00,
2013-04-10 08:53:00,43.8,41.3,29.86,WNW,300,8.0,15.0,91,0.01,,OVC010,0.02,179.00,VWS V14.01,2013-04-10 13:53:00,
2013-04-10 08:58:00,43.6,41.2,29.86,NW,321,7.0,15.0,91,0.02,,OVC010,0.03,179.00,VWS V14.01,2013-04-10 13:58:00,
2013-04-10 09:00:00,44.2,42.0,29.83,NNE,26,7.0,13.0,92,0.01,,CLR,0.01,179.00,VWS V15.00,2013-04-10 14:00:00,
2013-04-10 09:03:00,43.4,41.2,29.86,NW,324,6.0,7.0,92,0.02,,OVC010,0.03,179.00,VWS V14.01,2013-04-10 14:03:00,
2013-04-10 09:08:00,43.2,41.0,29.86,NW,318,3.0,13.0,92,0.02,,OVC010,0.03,179.00,VWS V14.01,2013-04-10 14:08:00,
2013-04-10 09:10:00,44.1,41.9,29.83,West,268,4.0,13.0,92,0.01,,CLR,0.01,179.00,VWS V15.00,2013-04-10 14:10:00,
2013-04-10 09:13:00,43.1,40.9,29.86,WSW,245,5.0,15.0,92,0.02,,OVC010,0.03,179.00,VWS V14.01,2013-04-10 14:13:00,
2013-04-10 09:18:00,43.1,40.9,29.84,WSW,252,2.0,15.0,92,0.02,,OVC010,0.03,179.00,VWS V14.01,2013-04-10 14:18:00,
2013-04-10 09:20:00,44.3,42.1,29.83,NW,317,7.0,11.0,92,0.02,,CLR,0.02,179.00,VWS V15.00,2013-04-10 14:20:00,
2013-04-10 09:23:00,43.3,41.1,29.84,NW,313,3.0,12.0,92,0.01,,OVC010,0.03,179.00,VWS V14.01,2013-04-10 14:23:00,
2013-04-10 09:28:00,43.2,41.0,29.84,WNW,284,7.0,12.0,92,0.02,,OVC010,0.04,179.00,VWS V14.01,2013-04-10 14:28:00,
2013-04-10 09:30:00,44.0,41.8,29.84,NNW,346,7.0,17.0,92,0.02,,CLR,0.02,179.00,VWS V15.00,2013-04-10 14:30:00,
2013-04-10 09:33:00,43.0,40.6,29.86,WNW,303,9.0,13.0,91,0.02,,OVC010,0.04,179.00,VWS V14.01,2013-04-10 14:33:00,
2013-04-10 09:38:00,42.9,40.7,29.86,NNE,17,9.0,15.0,92,0.02,,-RA,0.04,179.00,VWS V14.01,2013-04-10 14:38:00,
2013-04-10 09:40:00,44.0,41.8,29.84,NW,306,10.0,13.0,92,0.02,,OVC019,0.02,179.00,VWS V15.00,2013-04-10 14:40:00,
2013-04-10 09:43:00,42.9,40.7,29.86,NE,46,7.0,12.0,92,0.02,,-RA,0.04,179.00,VWS V14.01,2013-04-10 14:43:00,
2013-04-10 09:48:00,42.8,40.4,29.86,NW,322,5.0,16.0,91,0.02,,-RA,0.04,179.00,VWS V14.01,2013-04-10 14:48:00,
2013-04-10 09:50:00,43.8,41.6,29.86,WNW,303,5.0,17.0,92,0.01,,OVC019,0.02,179.00,VWS V15.00,2013-04-10 14:50:00,
2013-04-10 09:53:00,42.8,40.6,29.86,NNE,20,6.0,9.0,92,0.02,,-RA,0.04,179.00,VWS V14.01,2013-04-10 14:53:00,
2013-04-10 09:58:00,42.7,40.3,29.86,NW,309,10.0,13.0,91,0.02,,-RA,0.04,179.00,VWS V14.01,2013-04-10 14:58:00,
2013-04-10 10:00:00,43.5,41.0,29.86,NW,306,5.0,16.0,91,0.02,,CLR,0.03,179.00,VWS V15.00,2013-04-10 15:00:00,
2013-04-10 10:03:00,42.7,40.5,29.85,NNW,337,4.0,9.0,92,0.02,,-RA,0.05,179.00,VWS V14.01,2013-04-10 15:03:00,
2013-04-10 10:08:00,42.8,40.6,29.85,NNW,333,2.0,10.0,92,0.02,,-RA,0.05,179.00,VWS V14.01,2013-04-10 15:08:00,
2013-04-10 10:10:00,43.2,41.0,29.86,WNW,290,15.0,15.0,92,0.02,,CLR,0.03,179.00,VWS V15.00,2013-04-10 15:10:00,
2013-04-10 10:13:00,42.9,40.7,29.85,WNW,302,11.0,11.0,92,0.02,,-RA,0.05,179.00,VWS V14.01,2013-04-10 15:13:00,
2013-04-10 10:18:00,42.5,40.3,29.86,WNW,297,7.0,12.0,92,0.02,,-RA,0.05,179.00,VWS V14.01,2013-04-10 15:18:00,
2013-04-10 10:20:00,43.2,41.0,29.84,WNW,303,5.0,15.0,92,0.02,,CLR,0.03,179.00,VWS V15.00,2013-04-10 15:20:00,
2013-04-10 10:23:00,42.3,40.2,29.86,West,277,6.0,12.0,92,0.02,,-RA,0.05,179.00,VWS V14.01,2013-04-10 15:23:00,
2013-04-10 10:28:00,42.2,40.0,29.86,WNW,302,3.0,12.0,92,0.03,,-RA,0.06,179.00,VWS V14.01,2013-04-10 15:28:00,
2013-04-10 10:30:00,43.1,40.9,29.86,WNW,298,10.0,12.0,92,0.02,,CLR,0.04,179.00,VWS V15.00,2013-04-10 15:30:00,
2013-04-10 10:33:00,42.2,40.0,29.86,NW,309,4.0,10.0,92,0.03,,-RA,0.07,179.00,VWS V14.01,2013-04-10 15:33:00,
2013-04-10 10:38:00,42.1,40.0,29.86,WNW,300,2.0,14.0,92,0.03,,-RA,0.07,179.00,VWS V14.01,2013-04-10 15:38:00,
2013-04-10 10:40:00,42.9,40.5,29.86,WNW,299,9.0,19.0,91,0.02,,CLR,0.04,179.00,VWS V15.00,2013-04-10 15:40:00,
2013-04-10 10:43:00,42.1,40.0,29.86,NW,311,2.0,10.0,92,0.04,,-RA,0.08,179.00,VWS V14.01,2013-04-10 15:43:00,
2013-04-10 10:48:00,42.0,39.8,29.89,NNW,338,6.0,12.0,92,0.04,,-RA,0.08,179.00,VWS V14.01,2013-04-10 15:48:00,
2013-04-10 10:50:00,42.8,40.6,29.86,NW,317,4.0,16.0,92,0.02,,CLR,0.04,179.00,VWS V15.00,2013-04-10 15:50:00,
2013-04-10 10:53:00,42.1,40.2,29.89,West,277,3.0,8.0,93,0.05,,-RA,0.09,179.00,VWS V14.01,2013-04-10 15:53:00,
2013-04-10 10:58:00,42.2,40.3,29.89,WNW,302,2.0,11.0,93,0.06,,-RA,0.10,179.00,VWS V14.01,2013-04-10 15:58:00,
2013-04-10 11:00:00,42.7,40.3,29.85,NW,322,6.0,15.0,91,0.03,,CLR,0.05,179.00,VWS V15.00,2013-04-10 16:00:00,
2013-04-10 11:03:00,42.3,40.4,29.89,WNW,299,2.0,11.0,93,0.05,,-RA,0.10,179.00,VWS V14.01,2013-04-10 16:03:00,
2013-04-10 11:08:00,42.4,40.8,29.89,WNW,287,15.0,15.0,94,0.06,,-RA,0.11,179.00,VWS V14.01,2013-04-10 16:08:00,
2013-04-10 11:10:00,42.9,41.0,29.85,NW,320,4.0,10.0,93,0.02,,CLR,0.05,179.00,VWS V15.00,2013-04-10 16:10:00,
2013-04-10 11:13:00,42.2,40.3,29.89,WNW,299,7.0,11.0,93,0.06,,-RA,0.11,179.00,VWS V14.01,2013-04-10 16:13:00,
2013-04-10 11:18:00,42.2,40.6,29.90,NW,311,11.0,15.0,94,0.06,,-RA,0.11,179.00,VWS V14.01,2013-04-10 16:18:00,
2013-04-10 11:20:00,42.4,40.2,29.86,NW,318,10.0,12.0,92,0.02,,CLR,0.05,179.00,VWS V15.00,2013-04-10 16:20:00,
2013-04-10 11:23:00,42.1,40.5,29.90,NE,40,12.0,14.0,94,0.07,,-RA,0.12,179.00,VWS V14.01,2013-04-10 16:23:00,
2013-04-10 11:28:00,42.0,40.4,29.90,WNW,283,9.0,17.0,94,0.07,,-RA,0.12,179.00,VWS V14.01,2013-04-10 16:28:00,
2013-04-10 11:30:00,42.2,40.0,29.86,NW,310,4.0,12.0,92,0.03,,CLR,0.06,179.00,VWS V15.00,2013-04-10 16:30:00,
2013-04-10 11:33:00,41.8,39.9,29.89,NNW,330,12.0,17.0,93,0.06,,-RA,0.12,179.00,VWS V14.01,2013-04-10 16:33:00,
2013-04-10 11:38:00,41.8,40.2,29.89,NW,311,3.0,17.0,94,0.06,,SCT060,0.12,179.00,VWS V14.01,2013-04-10 16:38:00,
2013-04-10 11:40:00,42.1,40.0,29.86,WNW,303,6.0,14.0,92,0.03,,CLR,0.07,179.00,VWS V15.00,2013-04-10 16:40:00,
2013-04-10 11:43:00,41.7,39.8,29.89,WSW,246,4.0,13.0,93,0.06,,SCT060,0.13,179.00,VWS V14.01,2013-04-10 16:43:00,
2013-04-10 11:48:00,41.6,40.0,29.90,NW,322,5.0,17.0,94,0.06,,SCT060,0.13,179.00,VWS V14.01,2013-04-10 16:48:00,
2013-04-10 11:50:00,42.1,40.2,29.89,WNW,302,3.0,12.0,93,0.04,,CLR,0.08,179.00,VWS V15.00,2013-04-10 16:50:00,
2013-04-10 11:53:00,41.6,40.0,29.90,NNW,335,9.0,11.0,94,0.06,,-RA,0.14,179.00,VWS V14.01,2013-04-10 16:53:00,
2013-04-10 11:58:00,41.3,39.4,29.90,NW,320,12.0,15.0,93,0.07,,-RA,0.15,179.00,VWS V14.01,2013-04-10 16:58:00,
2013-04-10 12:00:00,42.2,40.3,29.89,WSW,256,6.0,12.0,93,0.06,,CLR,0.10,179.00,VWS V15.00,2013-04-10 17:00:00,
2013-04-10 12:03:00,41.1,39.2,29.89,NW,322,7.0,15.0,93,0.06,,-RA,0.16,179.00,VWS V14.01,2013-04-10 17:03:00,
2013-04-10 12:08:00,40.9,39.0,29.89,NNW,336,7.0,19.0,93,0.06,,-RA,0.16,179.00,VWS V14.01,2013-04-10 17:08:00,
2013-04-10 12:10:00,42.3,40.4,29.89,WNW,302,3.0,15.0,93,0.06,,CLR,0.11,179.00,VWS V15.00,2013-04-10 17:10:00,
2013-04-10 12:13:00,40.9,39.3,29.89,WNW,297,11.0,11.0,94,0.06,,-RA,0.17,179.00,VWS V14.01,2013-04-10 17:13:00,
2013-04-10 12:18:00,40.7,38.8,29.87,NW,323,4.0,16.0,93,0.06,,-RA,0.17,179.00,VWS V14.01,2013-04-10 17:18:00,
2013-04-10 12:20:00,42.2,40.6,29.90,NW,306,6.0,15.0,94,0.06,,CLR,0.11,179.00,VWS V15.00,2013-04-10 17:20:00,
2013-04-10 12:23:00,40.7,39.1,29.87,West,272,8.0,15.0,94,0.08,,-RA,0.19,179.00,VWS V14.01,2013-04-10 17:23:00,
2013-04-10 12:28:00,40.7,38.8,29.87,NW,313,7.0,17.0,93,0.11,,-RA,0.22,179.00,VWS V14.01,2013-04-10 17:28:00,
2013-04-10 12:30:00,42.0,40.4,29.89,West,279,7.0,19.0,94,0.07,,CLR,0.12,179.00,VWS V15.00,2013-04-10 17:30:00,
2013-04-10 12:33:00,40.7,39.1,29.92,NW,318,4.0,16.0,94,0.14,,-RA,0.26,179.00,VWS V14.01,2013-04-10 17:33:00,
2013-04-10 12:38:00,40.7,39.1,29.92,NW,306,1.0,16.0,94,0.23,,,0.35,179.00,VWS V14.01,2013-04-10 17:38:00,
2013-04-10 12:40:00,41.9,40.3,29.89,WNW,299,11.0,17.0,94,0.07,,CLR,0.13,179.00,VWS V15.00,2013-04-10 17:40:00,
2013-04-10 12:43:00,40.6,39.0,29.92,NE,42,7.0,14.0,94,0.24,,,0.37,179.00,VWS V14.01,2013-04-10 17:43:00,
2013-04-10 12:48:00,40.6,39.0,29.91,West,276,6.0,14.0,94,0.24,,,0.37,179.00,VWS V14.01,2013-04-10 17:48:00,
2013-04-10 12:50:00,41.6,40.0,29.90,West,273,6.0,17.0,94,0.06,,CLR,0.13,179.00,VWS V15.00,2013-04-10 17:50:00,
2013-04-10 12:53:00,40.6,39.0,29.91,NW,311,5.0,9.0,94,0.24,,,0.37,179.00,VWS V14.01,2013-04-10 17:53:00,
2013-04-10 12:58:00,40.4,38.8,29.91,West,279,10.0,21.0,94,0.25,,,0.38,179.00,VWS V14.01,2013-04-10 17:58:00,
2013-04-10 13:00:00,41.2,39.3,29.89,WNW,292,8.0,15.0,93,0.07,,CLR,0.15,179.00,VWS V15.00,2013-04-10 18:00:00,
2013-04-10 13:03:00,40.5,38.6,29.88,NNE,16,12.0,16.0,93,0.23,,,0.38,179.00,VWS V14.01,2013-04-10 18:03:00,
2013-04-10 13:08:00,40.4,38.5,29.88,WSW,256,11.0,17.0,93,0.23,,,0.38,179.00,VWS V14.01,2013-04-10 18:08:00,
2013-04-10 13:10:00,40.8,38.9,29.89,WNW,300,3.0,19.0,93,0.06,,CLR,0.16,179.00,VWS V15.00,2013-04-10 18:10:00,
2013-04-10 13:14:00,40.5,38.6,29.88,West,277,9.0,17.0,93,0.22,,BKN050,0.38,179.00,VWS V14.01,2013-04-10 18:14:00,
2013-04-10 13:18:00,40.6,38.7,29.89,NNW,336,6.0,17.0,93,0.24,,BKN050,0.40,179.00,VWS V14.01,2013-04-10 18:18:00,
2013-04-10 13:20:00,40.7,38.8,29.87,NW,319,5.0,16.0,93,0.06,,CLR,0.17,179.00,VWS V15.00,2013-04-10 18:20:00,
2013-04-10 13:23:00,40.6,38.7,29.89,NNW,331,7.0,15.0,93,0.23,,,0.40,179.00,VWS V14.01,2013-04-10 18:23:00,
2013-04-10 13:28:00,40.8,38.9,29.89,WNW,297,8.0,16.0,93,0.23,,,0.40,179.00,VWS V14.01,2013-04-10 18:28:00,
2013-04-10 13:30:00,40.8,39.2,29.92,ENE,63,10.0,17.0,94,0.12,,CLR,0.23,179.00,VWS V15.00,2013-04-10 18:30:00,
2013-04-10 13:33:00,41.5,39.9,29.88,NW,306,9.0,14.0,94,0.17,,OVC013,0.40,179.00,VWS V14.01,2013-04-10 18:33:00,
2013-04-10 13:39:00,42.0,40.1,29.88,West,266,19.0,19.0,93,0.17,,OVC013,0.40,179.00,VWS V14.01,2013-04-10 18:39:00,
2013-04-10 13:40:00,40.7,39.1,29.92,WNW,301,7.0,16.0,94,0.25,,CLR,0.37,179.00,VWS V15.00,2013-04-10 18:40:00,
2013-04-10 13:44:00,42.3,40.2,29.88,NNW,337,2.0,12.0,92,0.03,,OVC013,0.40,179.00,VWS V14.01,2013-04-10 18:44:00,
2013-04-10 13:49:00,42.4,40.0,29.88,WNW,295,11.0,19.0,91,0.03,,OVC013,0.40,179.00,VWS V14.01,2013-04-10 18:49:00,
2013-04-10 13:50:00,40.6,39.0,29.91,NE,39,7.0,14.0,94,0.24,,CLR,0.37,179.00,VWS V15.00,2013-04-10 18:50:00,
2013-04-10 13:54:00,42.4,39.7,29.88,West,273,8.0,14.0,90,0.03,,OVC013,0.40,179.00,VWS V14.01,2013-04-10 18:54:00,
2013-04-10 13:59:00,42.3,39.6,29.88,NW,317,11.0,17.0,90,0.03,,OVC013,0.40,179.00,VWS V14.01,2013-04-10 18:59:00,
2013-04-10 14:00:00,40.5,38.9,29.88,WNW,286,6.0,21.0,94,0.25,,OVC019,0.38,179.00,VWS V15.00,2013-04-10 19:00:00,
2013-04-10 14:04:00,42.4,39.7,29.86,WNW,290,14.0,18.0,90,0.02,,OVC013,0.40,179.00,VWS V14.01,2013-04-10 19:04:00,
2013-04-10 14:09:00,42.3,39.6,29.86,NNE,19,4.0,18.0,90,0.02,,OVC013,0.40,179.00,VWS V14.01,2013-04-10 19:09:00,
2013-04-10 14:10:00,40.5,38.6,29.88,NW,325,5.0,17.0,93,0.23,,CLR,0.38,179.00,VWS V15.00,2013-04-10 19:10:00,
2013-04-10 14:14:00,42.6,39.9,29.86,West,260,5.0,17.0,90,0.02,,OVC013,0.40,179.00,VWS V14.01,2013-04-10 19:14:00,
2013-04-10 14:19:00,42.8,39.8,29.88,NW,306,7.0,18.0,89,0.02,,OVC013,0.40,179.00,VWS V14.01,2013-04-10 19:19:00,
2013-04-10 14:20:00,40.6,38.7,29.89,NW,324,7.0,17.0,93,0.24,,CLR,0.40,179.00,VWS V15.00,2013-04-10 19:20:00,
2013-04-10 14:24:00,42.8,39.8,29.88,NW,319,5.0,17.0,89,0.00,,OVC013,0.40,179.00,VWS V14.01,2013-04-10 19:24:00,
2013-04-10 14:29:00,42.7,39.7,29.88,NNW,347,6.0,17.0,89,0.00,,OVC013,0.40,179.00,VWS V14.01,2013-04-10 19:29:00,
2013-04-10 14:30:00,41.0,39.1,29.88,WNW,292,7.0,16.0,93,0.23,,OVC019,0.40,179.00,VWS V15.00,2013-04-10 19:30:00,
2013-04-10 14:34:00,42.7,39.7,29.88,WNW,286,2.0,11.0,89,0.00,,-RA,0.40,179.00,VWS V14.01,2013-04-10 19:34:00,
2013-04-10 14:39:00,42.8,39.8,29.88,SW,233,4.0,12.0,89,0.00,,-RA,0.40,179.00,VWS V14.01,2013-04-10 19:39:00,
2013-04-10 14:40:00,42.0,39.8,29.88,NNW,339,7.0,21.0,92,0.17,,CLR,0.40,179.00,VWS V15.00,2013-04-10 19:40:00,
2013-04-10 14:44:00,42.8,39.8,29.88,WNW,297,6.0,13.0,89,0.00,,-RA,0.40,179.00,VWS V14.01,2013-04-10 19:44:00,
2013-04-10 14:49:00,42.8,39.8,29.88,NNW,344,6.0,13.0,89,0.00,,-RA,0.40,179.00,VWS V14.01,2013-04-10 19:49:00,
2013-04-10 14:50:00,42.4,40.0,29.88,WSW,242,3.0,19.0,91,0.03,,CLR,0.40,179.00,VWS V15.00,2013-04-10 19:50:00,
2013-04-10 14:54:00,42.8,39.8,29.88,NNE,32,9.0,11.0,89,0.00,,-RA,0.40,179.00,VWS V14.01,2013-04-10 19:54:00,
2013-04-10 14:59:00,42.7,39.4,29.88,West,263,5.0,15.0,88,0.00,,-RA,0.40,179.00,VWS V14.01,2013-04-10 19:59:00,
2013-04-10 15:00:00,42.3,39.6,29.86,NNW,330,6.0,17.0,90,0.03,,CLR,0.40,179.00,VWS V15.00,2013-04-10 20:00:00,
2013-04-10 15:04:00,42.6,39.6,29.87,NW,315,9.0,13.0,89,0.00,,-RA,0.40,179.00,VWS V14.01,2013-04-10 20:04:00,
2013-04-10 15:09:00,42.8,40.1,29.87,WNW,297,4.0,13.0,90,0.00,,-RA,0.40,179.00,VWS V14.01,2013-04-10 20:09:00,
2013-04-10 15:10:00,42.4,39.7,29.86,North,5,7.0,18.0,90,0.02,,CLR,0.40,179.00,VWS V15.00,2013-04-10 20:10:00,
2013-04-10 15:14:00,42.9,39.9,29.87,West,266,6.0,15.0,89,0.00,,-RA,0.40,179.00,VWS V14.01,2013-04-10 20:14:00,
2013-04-10 15:19:00,42.9,39.9,29.86,WNW,298,5.0,15.0,89,0.00,,-RA,0.40,179.00,VWS V14.01,2013-04-10 20:19:00,
2013-04-10 15:20:00,42.8,39.8,29.88,NNW,338,14.0,18.0,89,0.02,,CLR,0.40,179.00,VWS V15.00,2013-04-10 20:20:00,
2013-04-10 15:24:00,42.8,39.8,29.86,NNW,338,3.0,13.0,89,0.00,,-RA,0.40,179.00,VWS V14.01,2013-04-10 20:24:00,
2013-04-10 15:29:00,42.8,39.8,29.86,WSW,253,6.0,13.0,89,0.00,,-RA,0.40,179.00,VWS V14.01,2013-04-10 20:29:00,
2013-04-10 15:30:00,42.7,39.7,29.88,NNW,340,10.0,17.0,89,0.00,,CLR,0.40,179.00,VWS V15.00,2013-04-10 20:30:00,
2013-04-10 15:34:00,42.8,39.8,29.86,NW,309,4.0,14.0,89,0.00,,OVC013,0.40,179.00,VWS V14.01,2013-04-10 20:34:00,
2013-04-10 15:39:00,42.6,39.0,29.86,NW,315,4.0,16.0,87,0.00,,OVC013,0.40,179.00,VWS V14.01,2013-04-10 20:39:00,
2013-04-10 15:40:00,42.8,39.8,29.88,NW,311,5.0,12.0,89,0.00,,OVC019,0.40,179.00,VWS V15.00,2013-04-10 20:40:00,
2013-04-10 15:44:00,42.5,39.2,29.86,WNW,295,5.0,15.0,88,0.00,,OVC013,0.40,179.00,VWS V14.01,2013-04-10 20:44:00,
2013-04-10 15:49:00,42.6,39.0,29.87,NW,317,11.0,16.0,87,0.00,,OVC013,0.40,179.00,VWS V14.01,2013-04-10 20:49:00,
2013-04-10 15:50:00,42.9,40.2,29.88,WNW,303,9.0,13.0,90,0.00,,CLR,0.40,179.00,VWS V15.00,2013-04-10 20:50:00,
2013-04-10 15:54:00,42.7,39.1,29.87,WNW,283,8.0,16.0,87,0.00,,OVC013,0.40,179.00,VWS V14.01,2013-04-10 20:54:00,
2013-04-10 15:59:00,42.9,39.3,29.87,WNW,298,6.0,16.0,87,0.00,,OVC013,0.40,179.00,VWS V14.01,2013-04-10 20:59:00,
2013-04-10 16:00:00,42.7,39.7,29.87,NNW,328,13.0,15.0,89,0.00,,OVC019,0.40,179.00,VWS V15.00,2013-04-10 21:00:00,
2013-04-10 16:04:00,43.0,39.4,29.89,NW,310,3.0,15.0,87,0.00,,OVC013,0.40,179.00,VWS V14.01,2013-04-10 21:04:00,
2013-04-10 16:09:00,43.0,39.4,29.89,NW,304,2.0,15.0,87,0.00,,OVC013,0.40,179.00,VWS V14.01,2013-04-10 21:09:00,
2013-04-10 16:10:00,42.9,40.2,29.87,NNW,327,2.0,13.0,90,0.00,,OVC019,0.40,179.00,VWS V15.00,2013-04-10 21:10:00,
2013-04-10 16:14:00,43.0,39.4,29.89,West,273,6.0,11.0,87,0.00,,OVC013,0.40,179.00,VWS V14.01,2013-04-10 21:14:00,
2013-04-10 16:19:00,42.9,39.6,29.88,NW,310,5.0,13.0,88,0.00,,OVC013,0.40,179.00,VWS V14.01,2013-04-10 21:19:00,
2013-04-10 16:20:00,42.8,39.8,29.86,WNW,295,10.0,15.0,89,0.00,,OVC019,0.40,179.00,VWS V15.00,2013-04-10 21:20:00,
2013-04-10 16:24:00,42.8,39.5,29.88,WSW,256,7.0,12.0,88,0.00,,OVC013,0.40,179.00,VWS V14.01,2013-04-10 21:24:00,
2013-04-10 16:29:00,42.9,39.6,29.88,WNW,302,3.0,13.0,88,0.00,,OVC013,0.40,179.00,VWS V14.01,2013-04-10 21:29:00,
2013-04-10 16:30:00,42.9,39.9,29.86,NNW,327,6.0,13.0,89,0.00,,OVC019,0.40,179.00,VWS V15.00,2013-04-10 21:30:00,
2013-04-10 16:34:00,43.2,39.9,29.88,WNW,288,5.0,11.0,88,0.00,,OVC015,0.40,179.00,VWS V14.01,2013-04-10 21:34:00,
2013-04-10 16:39:00,43.3,39.7,29.88,West,267,7.0,14.0,87,0.00,,OVC015,0.40,179.00,VWS V14.01,2013-04-10 21:39:00,
2013-04-10 16:40:00,42.5,38.9,29.86,NNW,333,5.0,18.0,87,0.00,,CLR,0.40,179.00,VWS V15.00,2013-04-10 21:40:00,
2013-04-10 16:44:00,43.1,39.2,29.88,WNW,300,6.0,13.0,86,0.00,,OVC015,0.40,179.00,VWS V14.01,2013-04-10 21:44:00,
2013-04-10 16:49:00,43.0,39.1,29.88,WNW,288,8.0,16.0,86,0.00,,OVC015,0.40,179.00,VWS V14.01,2013-04-10 21:49:00,
2013-04-10 16:50:00,42.6,39.0,29.87,WNW,286,11.0,16.0,87,0.00,,CLR,0.40,179.00,VWS V15.00,2013-04-10 21:50:00,
2013-04-10 16:54:00,42.9,39.0,29.88,NW,311,6.0,12.0,86,0.00,,OVC015,0.40,179.00,VWS V14.01,2013-04-10 21:54:00,
2013-04-10 16:59:00,42.7,38.5,29.88,WNW,296,4.0,15.0,85,0.00,,OVC015,0.40,179.00,VWS V14.01,2013-04-10 21:59:00,
2013-04-10 17:00:00,42.9,39.3,29.89,NNW,333,12.0,16.0,87,0.00,,CLR,0.40,179.00,VWS V15.00,2013-04-10 22:00:00,
2013-04-10 17:04:00,42.7,38.5,29.88,WNW,286,10.0,16.0,85,0.00,,OVC015,0.40,179.00,VWS V14.01,2013-04-10 22:04:00,
2013-04-10 17:09:00,42.5,38.3,29.88,NNW,338,6.0,16.0,85,0.00,,OVC015,0.40,179.00,VWS V14.01,2013-04-10 22:09:00,
2013-04-10 17:10:00,43.0,39.4,29.89,West,268,2.0,15.0,87,0.00,,CLR,0.40,179.00,VWS V15.00,2013-04-10 22:10:00,
2013-04-10 17:14:00,42.7,38.5,29.88,North,5,3.0,14.0,85,0.00,,OVC015,0.40,179.00,VWS V14.01,2013-04-10 22:14:00,
2013-04-10 17:19:00,42.8,38.6,29.89,WNW,283,3.0,14.0,85,0.00,,OVC015,0.40,179.00,VWS V14.01,2013-04-10 22:19:00,
2013-04-10 17:20:00,42.9,39.6,29.88,NE,55,5.0,13.0,88,0.00,,CLR,0.40,179.00,VWS V15.00,2013-04-10 22:20:00,
2013-04-10 17:24:00,43.1,38.9,29.89,NW,323,11.0,11.0,85,0.00,,OVC015,0.40,179.00,VWS V14.01,2013-04-10 22:24:00,
2013-04-10 17:29:00,43.0,38.5,29.89,WNW,296,5.0,13.0,84,0.00,,OVC015,0.40,179.00,VWS V14.01,2013-04-10 22:29:00,
2013-04-10 17:34:00,42.9,38.4,29.89,West,273,4.0,13.0,84,0.00,,OVC017,0.40,179.00,VWS V14.01,2013-04-10 22:34:00,
2013-04-10 17:39:00,43.1,38.6,29.89,WNW,299,6.0,14.0,84,0.00,,OVC017,0.40,179.00,VWS V14.01,2013-04-10 22:39:00,
2013-04-10 17:40:00,43.3,39.7,29.88,NNW,338,4.0,14.0,87,0.00,,OVC019,0.40,179.00,VWS V15.00,2013-04-10 22:40:00,
2013-04-10 17:44:00,43.2,38.7,29.89,NNW,333,6.0,16.0,84,0.00,,OVC017,0.40,179.00,VWS V14.01,2013-04-10 22:44:00,
2013-04-10 17:49:00,43.2,38.7,29.88,WNW,283,11.0,16.0,84,0.00,,OVC017,0.40,179.00,VWS V14.01,2013-04-10 22:49:00,
2013-04-10 17:50:00,42.9,39.3,29.88,West,260,7.0,16.0,87,0.00,,CLR,0.40,179.00,VWS V15.00,2013-04-10 22:50:00,
2013-04-10 17:54:00,43.3,38.8,29.88,NW,311,4.0,16.0,84,0.00,,OVC017,0.40,179.00,VWS V14.01,2013-04-10 22:54:00,
2013-04-10 17:59:00,43.4,38.9,29.88,NW,322,5.0,16.0,84,0.00,,OVC017,0.40,179.00,VWS V14.01,2013-04-10 22:59:00,
2013-04-10 18:00:00,42.7,38.8,29.88,West,272,6.0,15.0,86,0.00,,OVC019,0.40,179.00,VWS V15.00,2013-04-10 23:00:00,
2013-04-10 18:04:00,43.5,39.0,29.88,WSW,256,4.0,10.0,84,0.00,,OVC017,0.40,179.00,VWS V14.01,2013-04-10 23:04:00,
2013-04-10 18:09:00,43.6,38.8,29.88,NW,319,10.0,15.0,83,0.00,,OVC017,0.40,179.00,VWS V14.01,2013-04-10 23:09:00,
2013-04-10 18:10:00,42.6,38.4,29.88,NW,314,6.0,16.0,85,0.00,,CLR,0.40,179.00,VWS V15.00,2013-04-10 23:10:00,
2013-04-10 18:14:00,43.6,38.8,29.88,NNE,12,4.0,16.0,83,0.00,,OVC017,0.40,179.00,VWS V14.01,2013-04-10 23:14:00,
2013-04-10 18:19:00,43.6,39.1,29.89,WNW,295,5.0,16.0,84,0.00,,OVC017,0.40,179.00,VWS V14.01,2013-04-10 23:19:00,
2013-04-10 18:20:00,42.9,39.0,29.89,ENE,57,7.0,14.0,86,0.00,,CLR,0.40,179.00,VWS V15.00,2013-04-10 23:20:00,
2013-04-10 18:24:00,43.7,39.2,29.89,NNW,334,5.0,13.0,84,0.00,,OVC017,0.40,179.00,VWS V14.01,2013-04-10 23:24:00,
2013-04-10 18:29:00,43.8,39.3,29.89,NW,311,6.0,14.0,84,0.00,,OVC017,0.40,179.00,VWS V14.01,2013-04-10 23:29:00,
2013-04-10 18:34:00,44.0,39.5,29.89,WNW,296,3.0,10.0,84,0.00,,OVC019,0.40,179.00,VWS V14.01,2013-04-10 23:34:00,
2013-04-10 18:39:00,44.2,39.7,29.89,NW,319,7.0,10.0,84,0.00,,OVC019,0.40,179.00,VWS V14.01,2013-04-10 23:39:00,
2013-04-10 18:40:00,43.1,38.6,29.89,NW,306,7.0,14.0,84,0.00,,CLR,0.40,179.00,VWS V15.00,2013-04-10 23:40:00,
2013-04-10 18:44:00,44.4,39.6,29.89,NW,311,2.0,10.0,83,0.00,,OVC019,0.40,179.00,VWS V14.01,2013-04-10 23:44:00,
2013-04-10 18:49:00,44.7,39.9,29.90,NW,304,4.0,13.0,83,0.00,,SCT023,0.40,179.00,VWS V14.01,2013-04-10 23:49:00,
2013-04-10 18:50:00,43.2,38.7,29.88,NW,322,12.0,16.0,84,0.00,,CLR,0.40,179.00,VWS V15.00,2013-04-10 23:50:00,
2013-04-10 18:54:00,44.9,39.8,29.90,West,271,2.0,10.0,82,0.00,,SCT023,0.40,179.00,VWS V14.01,2013-04-10 23:54:00,
2013-04-10 18:59:00,45.2,40.0,29.90,WNW,298,2.0,10.0,82,0.00,,SCT023,0.40,179.00,VWS V14.01,2013-04-10 23:59:00,
2013-04-10 19:00:00,43.5,39.0,29.88,WNW,295,9.0,16.0,84,0.00,,CLR,0.40,179.00,VWS V15.00,2013-04-11 00:00:00,
2013-04-10 19:04:00,45.2,39.7,29.90,WNW,298,5.0,7.0,81,0.00,,SCT023,0.40,179.00,VWS V14.01,2013-04-11 00:04:00,
2013-04-10 19:09:00,45.3,39.8,29.90,NW,317,3.0,7.0,81,0.00,,FEW024,0.40,179.00,VWS V14.01,2013-04-11 00:09:00,
2013-04-10 19:10:00,43.6,38.8,29.88,NW,304,11.0,15.0,83,0.00,,CLR,0.40,179.00,VWS V15.00,2013-04-11 00:10:00,
2013-04-10 19:14:00,45.4,39.9,29.90,WNW,302,6.0,9.0,81,0.00,,FEW024,0.40,179.00,VWS V14.01,2013-04-11 00:14:00,
2013-04-10 19:19:00,45.3,39.8,29.90,NW,306,3.0,10.0,81,0.00,,FEW024,0.40,179.00,VWS V14.01,2013-04-11 00:19:00,
2013-04-10 19:20:00,43.6,39.1,29.89,NW,317,5.0,16.0,84,0.00,,CLR,0.40,179.00,VWS V15.00,2013-04-11 00:20:00,
2013-04-10 19:24:00,45.3,39.8,29.90,WNW,283,1.0,5.0,81,0.00,,FEW024,0.40,179.00,VWS V14.01,2013-04-11 00:24:00,
2013-04-10 19:29:00,45.4,40.2,29.90,West,272,6.0,7.0,82,0.00,,FEW024,0.40,179.00,VWS V14.01,2013-04-11 00:29:00,
2013-04-10 19:30:00,43.9,39.4,29.89,NW,307,3.0,14.0,84,0.00,,CLR,0.40,179.00,VWS V15.00,2013-04-11 00:30:00,
2013-04-10 19:34:00,45.1,39.6,29.91,NW,309,6.0,7.0,81,0.00,,FEW024,0.40,179.00,VWS V14.01,2013-04-11 00:34:00,
2013-04-10 19:39:00,44.9,39.8,29.91,WNW,300,4.0,7.0,82,0.00,,FEW024,0.40,179.00,VWS V14.01,2013-04-11 00:39:00,
2013-04-10 19:40:00,44.2,39.4,29.89,WSW,253,9.0,11.0,83,0.00,,OVC019,0.40,179.00,VWS V15.00,2013-04-11 00:40:00,
2013-04-10 19:44:00,44.7,39.5,29.91,NNW,333,3.0,7.0,82,0.00,,FEW024,0.40,179.00,VWS V14.01,2013-04-11 00:44:00,
2013-04-10 19:49:00,44.5,39.4,29.92,WNW,286,5.0,8.0,82,0.00,,FEW024,0.40,179.00,VWS V14.01,2013-04-11 00:49:00,
2013-04-10 19:50:00,44.7,39.5,29.90,WNW,291,3.0,13.0,82,0.00,,OVC019,0.40,179.00,VWS V15.00,2013-04-11 00:50:00,
2013-04-10 19:54:00,44.4,39.6,29.92,NW,311,1.0,5.0,83,0.00,,FEW024,0.40,179.00,VWS V14.01,2013-04-11 00:54:00,
2013-04-10 19:59:00,44.2,39.7,29.92,NNW,340,1.0,7.0,84,0.00,,FEW024,0.40,179.00,VWS V14.01,2013-04-11 00:59:00,
2013-04-10 20:00:00,45.3,40.1,29.90,NW,319,6.0,10.0,82,0.00,,OVC019,0.40,179.00,VWS V15.00,2013-04-11 01:00:00,
2013-04-10 20:04:00,44.1,39.6,29.91,NW,306,2.0,5.0,84,0.00,,FEW024,0.40,179.00,VWS V14.01,2013-04-11 01:04:00,
2013-04-10 20:09:00,44.0,39.5,29.91,NNE,15,3.0,6.0,84,0.00,,FEW024,0.40,179.00,VWS V14.01,2013-04-11 01:09:00,
2013-04-10 20:14:00,43.9,39.7,29.91,NNW,337,2.0,6.0,85,0.00,,FEW024,0.40,179.00,VWS V14.01,2013-04-11 01:14:00,
2013-04-10 20:19:00,43.9,39.7,29.91,WNW,295,2.0,6.0,85,0.00,,FEW024,0.40,179.00,VWS V14.01,2013-04-11 01:19:00,
2013-04-10 20:20:00,45.3,39.8,29.90,NW,325,5.0,10.0,81,0.00,,CLR,0.40,179.00,VWS V15.00,2013-04-11 01:20:00,
2013-04-10 20:24:00,43.8,39.6,29.91,NNW,336,2.0,3.0,85,0.00,,FEW024,0.40,179.00,VWS V14.01,2013-04-11 01:24:00,
2013-04-10 20:29:00,43.7,39.8,29.91,NE,36,2.0,3.0,86,0.00,,FEW024,0.40,179.00,VWS V14.01,2013-04-11 01:29:00,
2013-04-10 20:30:00,45.4,39.9,29.91,North,350,4.0,9.0,81,0.00,,CLR,0.40,179.00,VWS V15.00,2013-04-11 01:30:00,
2013-04-10 20:34:00,43.6,39.7,29.91,NNE,33,2.0,3.0,86,0.00,,FEW026,0.40,179.00,VWS V14.01,2013-04-11 01:34:00,
2013-04-10 20:39:00,43.7,40.1,29.91,NNW,327,1.0,5.0,87,0.00,,FEW026,0.40,179.00,VWS V14.01,2013-04-11 01:39:00,
2013-04-10 20:44:00,43.6,40.0,29.91,WNW,301,3.0,4.0,87,0.00,,FEW026,0.40,179.00,VWS V14.01,2013-04-11 01:44:00,
2013-04-10 20:49:00,43.6,39.7,29.91,NNW,330,1.0,4.0,86,0.00,,FEW026,0.40,179.00,VWS V14.01,2013-04-11 01:49:00,
2013-04-10 20:50:00,44.5,39.4,29.92,NNW,331,2.0,8.0,82,0.00,,CLR,0.40,179.00,VWS V15.00,2013-04-11 01:50:00,
2013-04-10 20:54:00,43.5,39.6,29.91,NNE,27,0.0,5.0,86,0.00,,FEW026,0.40,179.00,VWS V14.01,2013-04-11 01:54:00,
2013-04-10 20:59:00,43.4,39.8,29.91,NW,319,0.0,5.0,87,0.00,,FEW026,0.40,179.00,VWS V14.01,2013-04-11 01:59:00,
2013-04-10 21:00:00,44.1,39.6,29.91,NW,313,5.0,7.0,84,0.00,,CLR,0.40,179.00,VWS V15.00,2013-04-11 02:00:00,
2013-04-10 21:04:00,43.3,39.7,29.92,NNW,337,1.0,2.0,87,0.00,,FEW026,0.40,179.00,VWS V14.01,2013-04-11 02:04:00,
2013-04-10 21:09:00,43.2,39.6,29.92,West,276,2.0,3.0,87,0.00,,FEW026,0.40,179.00,VWS V14.01,2013-04-11 02:09:00,
2013-04-10 21:10:00,44.0,39.5,29.91,NNW,340,1.0,6.0,84,0.00,,CLR,0.40,179.00,VWS V15.00,2013-04-11 02:10:00,
2013-04-10 21:14:00,43.2,39.6,29.92,NW,323,0.0,4.0,87,0.00,,FEW026,0.40,179.00,VWS V14.01,2013-04-11 02:14:00,
2013-04-10 21:19:00,43.3,39.7,29.92,West,268,2.0,4.0,87,0.00,,FEW026,0.40,179.00,VWS V14.01,2013-04-11 02:19:00,
2013-04-10 21:20:00,43.9,39.7,29.91,NW,306,3.0,6.0,85,0.00,,CLR,0.40,179.00,VWS V15.00,2013-04-11 02:20:00,
2013-04-10 21:24:00,43.3,39.7,29.92,WNW,303,2.0,6.0,87,0.00,,FEW026,0.40,179.00,VWS V14.01,2013-04-11 02:24:00,
2013-04-10 21:29:00,43.3,39.7,29.92,NNW,329,1.0,6.0,87,0.00,,FEW026,0.40,179.00,VWS V14.01,2013-04-11 02:29:00,
2013-04-10 21:30:00,43.7,39.8,29.91,NE,42,1.0,3.0,86,0.00,,CLR,0.40,179.00,VWS V15.00,2013-04-11 02:30:00,
2013-04-10 21:34:00,43.3,39.7,29.93,NNW,330,3.0,3.0,87,0.00,,FEW025,0.40,179.00,VWS V14.01,2013-04-11 02:34:00,
2013-04-10 21:39:00,43.2,39.9,29.93,NNW,345,3.0,4.0,88,0.00,,FEW025,0.40,179.00,VWS V14.01,2013-04-11 02:39:00,
2013-04-10 21:40:00,43.6,40.0,29.91,NNW,333,2.0,5.0,87,0.00,,CLR,0.40,179.00,VWS V15.00,2013-04-11 02:40:00,
2013-04-10 21:44:00,43.3,40.0,29.93,West,265,2.0,6.0,88,0.00,,FEW025,0.40,179.00,VWS V14.01,2013-04-11 02:44:00,
2013-04-10 21:49:00,43.3,39.7,29.94,ESE,113,2.0,6.0,87,0.00,,FEW025,0.40,179.00,VWS V14.01,2013-04-11 02:49:00,
2013-04-10 21:50:00,43.6,39.7,29.91,WNW,297,1.0,4.0,86,0.00,,CLR,0.40,179.00,VWS V15.00,2013-04-11 02:50:00,
2013-04-10 21:54:00,43.3,39.7,29.94,NW,315,2.0,5.0,87,0.00,,FEW025,0.40,179.00,VWS V14.01,2013-04-11 02:54:00,
2013-04-10 21:59:00,43.4,40.1,29.94,NW,324,1.0,6.0,88,0.00,,FEW025,0.40,179.00,VWS V14.01,2013-04-11 02:59:00,
2013-04-10 22:00:00,43.4,39.8,29.92,NW,311,1.0,5.0,87,0.00,,CLR,0.40,179.00,VWS V15.00,2013-04-11 03:00:00,
2013-04-10 22:04:00,43.5,39.9,29.94,NNW,329,7.0,7.0,87,0.00,,FEW025,0.40,179.00,VWS V14.01,2013-04-11 03:04:00,
2013-04-10 22:09:00,43.7,40.1,29.94,NW,320,7.0,10.0,87,0.00,,FEW025,0.40,179.00,VWS V14.01,2013-04-11 03:09:00,
2013-04-10 22:10:00,43.2,39.6,29.92,NNE,24,2.0,4.0,87,0.00,,CLR,0.40,179.00,VWS V15.00,2013-04-11 03:10:00,
2013-04-10 22:14:00,43.9,40.0,29.94,NW,318,3.0,9.0,86,0.00,,FEW025,0.40,179.00,VWS V14.01,2013-04-11 03:14:00,
2013-04-10 22:19:00,43.9,40.0,29.94,NW,317,2.0,9.0,86,0.00,,FEW025,0.40,179.00,VWS V14.01,2013-04-11 03:19:00,
2013-04-10 22:20:00,43.2,39.6,29.92,NNW,329,1.0,4.0,87,0.00,,CLR,0.40,179.00,VWS V15.00,2013-04-11 03:20:00,
2013-04-10 22:24:00,44.1,40.2,29.94,WNW,283,2.0,6.0,86,0.00,,FEW025,0.40,179.00,VWS V14.01,2013-04-11 03:24:00,
2013-04-10 22:29:00,44.1,40.2,29.94,North,351,1.0,6.0,86,0.00,,FEW025,0.40,179.00,VWS V14.01,2013-04-11 03:29:00,
2013-04-10 22:30:00,43.3,39.7,29.93,WNW,291,1.0,6.0,87,0.00,,CLR,0.40,179.00,VWS V15.00,2013-04-11 03:30:00,
2013-04-10 22:34:00,44.3,40.4,29.94,NW,324,2.0,6.0,86,0.00,,BKN025,0.40,179.00,VWS V14.01,2013-04-11 03:34:00,
2013-04-10 22:39:00,44.3,40.4,29.94,West,276,1.0,7.0,86,0.00,,BKN025,0.40,179.00,VWS V14.01,2013-04-11 03:39:00,
2013-04-10 22:40:00,43.3,40.0,29.93,WNW,295,2.0,4.0,88,0.00,,CLR,0.40,179.00,VWS V15.00,2013-04-11 03:40:00,
2013-04-10 22:44:00,44.5,40.6,29.94,West,268,2.0,5.0,86,0.00,,BKN025,0.40,179.00,VWS V14.01,2013-04-11 03:44:00,
2013-04-10 22:49:00,44.5,40.3,29.94,NW,310,6.0,9.0,85,0.00,,SCT025,0.40,179.00,VWS V14.01,2013-04-11 03:49:00,
2013-04-10 22:50:00,43.3,39.7,29.94,West,272,2.0,6.0,87,0.00,,CLR,0.40,179.00,VWS V15.00,2013-04-11 03:50:00,
2013-04-10 22:54:00,44.7,40.2,29.94,ENE,73,3.0,10.0,84,0.00,,SCT025,0.40,179.00,VWS V14.01,2013-04-11 03:54:00,
2013-04-10 22:59:00,44.8,39.7,29.94,West,273,6.0,10.0,82,0.00,,SCT025,0.40,179.00,VWS V14.01,2013-04-11 03:59:00,
2013-04-10 23:00:00,44.8,39.7,29.95,NNW,344,4.0,10.0,82,0.00,,SCT025,0.40,179.00,VWS V14.01,2013-04-11 04:00:00,
2013-04-10 23:05:00,44.8,39.3,29.95,NW,306,3.0,15.0,81,0.00,,SCT025,0.40,179.00,VWS V14.01,2013-04-11 04:05:00,
2013-04-10 23:10:00,44.5,38.7,29.95,West,275,4.0,15.0,80,0.00,,SCT025,0.40,179.00,VWS V14.01,2013-04-11 04:10:00,
2013-04-10 23:15:00,44.3,38.8,29.94,West,276,9.0,14.0,81,0.00,,SCT025,0.40,179.00,VWS V14.01,2013-04-11 04:15:00,
2013-04-10 23:20:00,43.9,37.8,29.94,WNW,284,10.0,15.0,79,0.00,,SCT025,0.40,179.00,VWS V14.01,2013-04-11 04:20:00,
2013-04-10 23:25:00,43.5,37.8,29.94,NNE,13,4.0,10.0,80,0.00,,SCT025,0.40,179.00,VWS V14.01,2013-04-11 04:25:00,
2013-04-10 23:30:00,43.2,37.8,29.97,WNW,298,3.0,10.0,81,0.00,,SCT025,0.40,179.00,VWS V14.01,2013-04-11 04:30:00,
2013-04-10 23:35:00,42.9,37.2,29.97,NW,313,4.0,13.0,80,0.00,,SCT025,0.40,179.00,VWS V14.01,2013-04-11 04:35:00,
2013-04-10 23:40:00,42.6,36.9,29.97,NW,324,3.0,13.0,80,0.00,,SCT025,0.40,179.00,VWS V14.01,2013-04-11 04:40:00,
2013-04-10 23:45:00,42.4,36.4,29.96,North,5,6.0,14.0,79,0.00,,SCT025,0.40,179.00,VWS V14.01,2013-04-11 04:45:00,
2013-04-10 23:50:00,42.2,36.2,29.96,North,360,9.0,14.0,79,0.00,,SCT025,0.40,179.00,VWS V14.01,2013-04-11 04:50:00,
2013-04-10 23:55:00,42.0,36.3,29.96,NNW,344,7.0,13.0,80,0.00,,SCT025,0.40,179.00,VWS V14.01,2013-04-11 04:55:00,